Corlu, Turkey

9:24 AM +03 on October 19, 2017 (GMT +0300)
Corlu Air Base

Weather History for LTBU - February, 2013

Change the Weather History Date:

Friday, February 15, 2013

  Actual Average (LTBA) Record (LTBA)
Temperature  
Mean Temperature 40 °F -  
Max Temperature 44 °F 46 °F 68 °F (2016)
Min Temperature 35 °F 37 °F 26 °F (2006)
Degree Days  
Heating Degree Days 26    
Moisture  
Dew Point 37 °F    
Average Humidity 90    
Maximum Humidity 93    
Minimum Humidity 87    
Precipitation  
Precipitation 0.00 in - - ()
Sea Level Pressure  
Sea Level Pressure 29.88 in    
Wind  
Wind Speed 21 mph ()    
Max Wind Speed 29 mph    
Max Gust Speed -    
Visibility 5.1 miles    
Events Rain    
Averages and records for this station are not official NWS values.
T = Trace of Precipitation, MM = Missing Value Source: Averaged Metar Reports

Daily Weather History Graph

Daily Weather History Graph

Search for Another Location

Airport or City:

Trip Planner

Search our weather history database for the weather conditions in past years. The results will help you decide how hot, cold, wet, or windy it might be!

Date:

Astronomy

Feb. 15, 2013 Rise Set
Actual Time 7:02 AM EET 5:42 PM EET
Civil Twilight 6:34 AM EET 6:10 PM EET
Nautical Twilight 6:02 AM EET 6:43 PM EET
Astronomical Twilight 5:30 AM EET 7:15 PM EET
Moon 9:24 AM EET (2/15) 11:28 PM EET (2/15)
Length of Visible Light 11h 36m
Length of Day
10h 39m
Waxing Crescent, 27% of the Moon is Illuminated
Feb 15
Waxing Crescent
Feb 17
First Quarter
Feb 25
Full
Mar 4
Last Quarter
Mar 11
New

Hourly Weather History & Observations

Time (EET) Temp. Windchill Dew Point Humidity Pressure Visibility Wind Dir Wind Speed Gust Speed Precip Events Conditions
12:20 AM 44.6 °F 35.5 °F 41.0 °F 87% 29.80 in 6.2 mi NNE 25.3 mph - N/A   Mostly Cloudy
12:50 AM 44.6 °F 35.7 °F 41.0 °F 87% 29.80 in 6.2 mi NNE 24.2 mph - N/A   Mostly Cloudy
1:20 AM 44.6 °F 35.7 °F 41.0 °F 87% 29.77 in 6.2 mi NE 24.2 mph - N/A   Mostly Cloudy
1:50 AM 44.6 °F 35.3 °F 41.0 °F 87% 29.77 in 6.2 mi NNE 26.5 mph - N/A   Mostly Cloudy
2:20 AM 44.6 °F 35.5 °F 41.0 °F 87% 29.77 in 6.2 mi NNE 25.3 mph - N/A   Mostly Cloudy
2:50 AM 44.6 °F 35.9 °F 41.0 °F 87% 29.77 in 6.2 mi NNE 23.0 mph - N/A   Mostly Cloudy
3:20 AM 42.8 °F 34.0 °F 41.0 °F 93% 29.77 in 6.2 mi NNE 20.7 mph - N/A   Mostly Cloudy
3:50 AM 42.8 °F 34.0 °F 41.0 °F 93% 29.77 in 6.2 mi NNE 20.7 mph - N/A   Mostly Cloudy
4:20 AM 42.8 °F 33.1 °F 41.0 °F 93% 29.74 in 6.2 mi NNE 25.3 mph - N/A Rain Light Rain Showers
4:50 AM 42.8 °F 32.7 °F 41.0 °F 93% 29.77 in 6.2 mi NNE 27.6 mph - N/A Rain Light Rain Showers
5:20 AM 42.8 °F 32.5 °F 41.0 °F 93% 29.74 in 6.2 mi NNE 28.8 mph - N/A Rain Light Rain Showers
5:50 AM 42.8 °F 32.7 °F 41.0 °F 93% 29.74 in 6.2 mi North 27.6 mph - N/A Rain Light Rain Showers
6:20 AM 42.8 °F 32.7 °F 41.0 °F 93% 29.77 in 6.2 mi NNE 27.6 mph - N/A Rain Light Rain Showers
6:50 AM 42.8 °F 32.7 °F 39.2 °F 87% 29.77 in 6.2 mi North 27.6 mph - N/A Rain Light Rain Showers
7:20 AM 42.8 °F 32.9 °F 39.2 °F 87% 29.77 in 3.7 mi NNE 26.5 mph - N/A Rain Light Rain Showers
7:50 AM 42.8 °F 33.3 °F 39.2 °F 87% 29.80 in 3.7 mi North 24.2 mph - N/A Rain Light Rain Showers
8:20 AM 42.8 °F 33.3 °F 39.2 °F 87% 29.80 in 3.7 mi North 24.2 mph - N/A Rain Light Rain Showers
8:50 AM 41.0 °F 30.5 °F 39.2 °F 93% 29.80 in 3.7 mi NNE 26.5 mph - N/A Rain Light Rain Showers
9:20 AM 41.0 °F 30.9 °F 39.2 °F 93% 29.80 in 3.1 mi North 24.2 mph - N/A Rain Light Rain Showers
9:50 AM 41.0 °F 31.1 °F 39.2 °F 93% 29.83 in 3.1 mi North 23.0 mph - N/A Rain Light Rain Showers
10:20 AM 41.0 °F 31.1 °F 39.2 °F 93% 29.83 in 2.5 mi North 23.0 mph - N/A Rain Rain Showers
10:50 AM 41.0 °F 31.1 °F 39.2 °F 93% 29.86 in 3.7 mi North 23.0 mph - N/A Rain Light Rain Showers
11:20 AM 39.2 °F 28.7 °F 37.4 °F 93% 29.86 in 3.7 mi North 23.0 mph - N/A Rain Light Rain Showers
11:50 AM 39.2 °F 28.7 °F 37.4 °F 93% 29.86 in 3.7 mi North 23.0 mph - N/A Rain Light Rain Showers
12:20 PM 39.2 °F 28.7 °F 37.4 °F 93% 29.86 in 2.5 mi North 23.0 mph - N/A Rain Rain Showers
12:50 PM 39.2 °F 29.0 °F 37.4 °F 93% 29.86 in 2.5 mi North 21.9 mph - N/A Rain Rain Showers
1:20 PM 39.2 °F 29.0 °F 37.4 °F 93% 29.89 in 3.7 mi North 21.9 mph - N/A Rain Light Rain Showers
1:50 PM 39.2 °F 29.8 °F 35.6 °F 87% 29.89 in 3.7 mi North 18.4 mph - N/A Rain Light Rain Showers
2:20 PM 37.4 °F 26.6 °F 35.6 °F 93% 29.89 in 3.7 mi North 21.9 mph - N/A Rain Light Rain Showers
2:50 PM 37.4 °F 26.6 °F 35.6 °F 93% 29.92 in 5.0 mi North 21.9 mph - N/A Rain Light Rain Showers
3:20 PM 37.4 °F 26.6 °F 35.6 °F 93% 29.92 in 5.0 mi North 21.9 mph - N/A Rain Light Rain Showers
3:50 PM 37.4 °F 26.6 °F 35.6 °F 93% 29.92 in 5.0 mi North 21.9 mph - N/A   Mostly Cloudy
4:20 PM 37.4 °F 26.6 °F 35.6 °F 93% 29.92 in 5.0 mi North 21.9 mph - N/A   Mostly Cloudy
4:50 PM 37.4 °F 26.4 °F 35.6 °F 93% 29.95 in 5.0 mi North 23.0 mph - N/A   Mostly Cloudy
5:20 PM 37.4 °F 26.4 °F 33.8 °F 87% 29.95 in 5.0 mi North 23.0 mph - N/A   Mostly Cloudy
5:50 PM 37.4 °F 27.5 °F 33.8 °F 87% 29.98 in 5.0 mi North 18.4 mph - N/A   Mostly Cloudy
6:20 PM 37.4 °F 27.2 °F 33.8 °F 87% 29.98 in 6.2 mi North 19.6 mph - N/A   Mostly Cloudy
6:50 PM 37.4 °F 27.2 °F 33.8 °F 87% 30.01 in 6.2 mi North 19.6 mph - N/A   Mostly Cloudy
7:20 PM 37.4 °F 27.5 °F 33.8 °F 87% 30.01 in 6.2 mi North 18.4 mph - N/A   Mostly Cloudy
7:50 PM 37.4 °F 26.9 °F 33.8 °F 87% 30.01 in 6.2 mi North 20.7 mph - N/A   Mostly Cloudy
8:20 PM 37.4 °F 27.2 °F 33.8 °F 87% 30.01 in 6.2 mi North 19.6 mph - N/A   Mostly Cloudy
8:50 PM 37.4 °F 28.2 °F 33.8 °F 87% 30.04 in 6.2 mi North 16.1 mph - N/A   Mostly Cloudy
9:20 PM 37.4 °F 28.5 °F 33.8 °F 87% 30.04 in 6.2 mi North 15.0 mph - N/A   Mostly Cloudy
9:50 PM 37.4 °F 27.2 °F 33.8 °F 87% 30.04 in 6.2 mi North 19.6 mph - N/A   Mostly Cloudy
10:20 PM 35.6 °F 25.5 °F 32.0 °F 87% 30.04 in 6.2 mi North 17.3 mph - N/A   Mostly Cloudy
10:50 PM 35.6 °F 25.9 °F 32.0 °F 87% 30.04 in 6.2 mi North 16.1 mph - N/A   Mostly Cloudy
11:20 PM 35.6 °F 26.2 °F 32.0 °F 87% 30.04 in 6.2 mi North 15.0 mph - N/A   Mostly Cloudy
11:50 PM 35.6 °F 27.1 °F 32.0 °F 87% 30.04 in 6.2 mi North 12.7 mph - N/A   Mostly Cloudy